User: anonymous   Login
Location: Unspecified
(0.0000°N, 0.0000°E)
Time: 12:23:09
(UTC+01:00)
Language:

ATLAS 5 CENTAUR R/B - Orbit

View from above orbital plane
View from above orbital plane
View from above satellite
View from above satellite

Ground track
Ground track

The orbit data is extracted from the following two-line orbital elements,

1 31702U 07027B   14343.16543839 0.00000250  00000-0  10515-3 0    08
2 31702  63.3770  24.3730 0169000 352.3498   7.6502 14.18231322    07
Epoch (UTC): 09 December 2014 03:58:13
Eccentricity: 0.0169000
inclination: 63.3770°
perigee height: 709 km
apogee height: 953 km
right ascension of ascending node: 24.3730°
argument of perigee: 352.3498°
revolutions per day: 14.18231322
mean anomaly at epoch: 7.6502°
orbit number at epoch: 0

The dashed part of the orbit path shows where the satellite is in the earth's shadow,  

DLR